Regional Weather Roundup
Issued by NWS Charleston, SC

Home | Current Version | Previous Version | Text Only | Print | Product List | Glossary On
Versions: 1 2 3 4 5 6 7 8 9 10 11 12 13 14 15 16 17 18 19 20 21 22 23 24 25 26 27 28 29 30 31 32 33 34 35 36 37 38 39 40 41 42 43 44 45 46 47 48 49 50
000
ASUS42 KCHS 010511
RWRCHS

REGIONAL WEATHER ROUNDUP
NATIONAL WEATHER SERVICE CHARLESTON SC
1200 AM EST SUN FEB 01 2015

NOTE: "FAIR" INDICATES FEW OR NO CLOUDS BELOW 12,000 FEET WITH NO
SIGNIFICANT WEATHER AND/OR OBSTRUCTIONS TO VISIBILITY.

NOT ALL STATIONS ARE QUALITY CONTROLLED BY THE NATIONAL
WEATHER SERVICE. USE DATA WITH CAUTION...ESPECIALLY
DEWPOINT OBSERVATIONS.

SCZ027-030-031-034>040-042>050-010600-
...SOUTHEAST SOUTH CAROLINA...

CITY           SKY/WX    TMP DP  RH WIND       PRES   REMARKS
N CHARLESTON   MOCLDY    39  29  67 CALM      30.33F
WATERFRONT PRK   N/A     45 N/A N/A CALM        N/A
MOUNT PLEASANT FAIR      34  30  86 CALM      30.34F
PINOPOLIS        N/A     43  27  52 VRB3      30.24F
MONCKS CORNER  FAIR      36  28  75 CALM      30.33F
SUMMERVILLE    NOT AVBL
BEAUFORT MCAS  PTCLDY    41  32  70 CALM      30.33F
BEAUFORT ARPT  FAIR      39  34  81 CALM      30.33F
HILTON HEAD IS MOCLDY    43  34  70 CALM      30.34F
WALTERBORO     MOCLDY    36  32  87 CALM      30.34F
ALLENDALE      FAIR      39  25  56 CALM      30.32S

...SOUTHERN MIDLANDS AND PEE DEE...

CITY           SKY/WX    TMP DP  RH WIND       PRES   REMARKS
GEORGETOWN     NOT AVBL
KINGSTREE      NOT AVBL
ORANGEBURG     MOCLDY    39  27  62 SW5       30.32F WCI  36
BARNWELL       FAIR      43  25  49 S3        30.32F
AIKEN          FAIR      43  27  52 S5        30.33S
MANNING        FAIR      45  30  57 CALM      30.32F
COLUMBIA       CLOUDY    40  27  59 CALM      30.30F
SUMTER         CLOUDY    39  23  53 S5        30.29F WCI  35
FLORENCE       CLEAR     32  23  69 CALM      30.32S
MYRTLE BEACH   CLEAR     34  27  75 SW3       30.35F
N MYRTLE BEACH CLEAR     33  28  81 CALM      30.33F

$$

GAZ063-065-086>088-099>101-113>116-118-119-134>141-150-010600-
...SOUTHEAST GEORGIA...

CITY           SKY/WX    TMP DP  RH WIND       PRES   REMARKS
SAVANNAH ARPT  MOCLDY    43  32  65 CALM      30.33F
HUNTER AAF     PTCLDY    40  35  83 SE2       30.31F
FORT STEWART   PTCLDY    37  31  80 CALM      30.31F
STATESBORO     MOCLDY    37  32  83 CALM      30.32F
SYLVANIA       MOCLDY    41  32  70 CALM      30.33F
CLAXTON        FAIR      37  34  87 CALM      30.33F

...CSRA...CENTRAL AND FAR SOUTHEAST GEORGIA...

CITY           SKY/WX    TMP DP  RH WIND       PRES   REMARKS
THOMSON        CLOUDY    45  32  59 CALM      30.34S
AUGUSTA-BUSH   CLOUDY    44  23  43 S7        30.31F
AUGUSTA-DANIEL CLOUDY    47  22  37 S6        30.31S
SWAINSBORO     FAIR      45  21  39 SE6       30.32F
VIDALIA        PTCLDY    41  32  70 SE3       30.32F
EASTMAN        FAIR      36  31  83 CALM      30.33F
HAZLEHURST     FAIR      43  34  72 SE5       30.30F
ALMA           CLEAR     40  33  76 E3        30.31F
WAYCROSS       CLEAR     43  38  80 E3        30.31F
JESUP          FAIR      36  36 100 CALM      30.32F
BAXLEY         FAIR      41  34  75 CALM      30.31F
BRUNSWICK      CLEAR     36  34  93 CALM      30.33F
SAINT SIMONS   CLEAR     46  40  79 E5        30.32F

$$

SCZ027-028-034-036>038-045-046-048>050-GAZ119-141-010600-
...LAKE AND SUPPLEMENTAL COASTAL OBSERVATIONS...

STATION/POSITION TIME  TEMP    WIND        PRES    WAVE   SWELL
                       AIR SEA DIR/SP/G            HT/PER HT/PER/DIR
                 (UTC) (F)     (DEG/KT/KT) (MB)    (FT/S) (FT/S/D)
UPR LAKE MARION  NOT AVBL
WINYAH BAY       NOT AVBL
LAKE MURRAY      0400   48     210/  7/  9 1025.4F
ACE BASIN NERRS  NOT AVBL
FORT PULASKI     0400   49 52  110/  4/  4 1028.0F
SAPELO ISLAND    0400   39      50/  2     1027.0F

$$

ANZ835-935-AMZ111-154-330-350-352-354-370-450-454-472-010600-
...C-MAN AND BUOY OBSERVATIONS...

STATION/POSITION TIME  TEMP    WIND        PRES    WAVE   SWELL
                       AIR SEA DIR/SP/G            HT/PER HT/PER/DIR
                 (UTC) (F)     (DEG/KT/KT) (MB)    (FT/S) (FT/S/D)
BUOY 41004       0450   53 69  210/  4/  6 1027.4F   4/ 9   3/ 9
BUOY 41008       0450   54 53   90/  8/ 10 1026.9F   3/ 7   3/ 70/ 7
FOLLY BEACH CMAN 0500   50     170/  5/  5 1027.4F
CAPERS NEARSHORE 0400   49     240/  6/  6   N/A
FRIPP NEARSHORE  0400   51     160/  8/  8 1026.8F


STATION/POSITION TIME  TEMP    WIND        PRES    WAVE   SWELL
                       AIR SEA DIR/SP/G            HT/PER HT/PER/DIR
                 (UTC) (F)     (DEG/KT/KT) (MB)    (FT/S) (FT/S/D)
5E ST. MARYS GA  0421      56                N/A     3/ 6
FRYING PAN BUOY  0450   50 63  270/  4/  6 1028.2F   2/ 8   2/ 80/ 8
BUOY 41025       0450   47 71  290/ 14/ 17 1026.3F   6/12   5/ 50/12
CAPE LOOKOUT NC  0400   44      CALM  /  1 1027.0F
BUOY 41002       0450   56 70  360/ 14/ 17 1026.7F  10/11  10/ 10/11
BUOY 41010       0420   63 73   80/  8/ 10 1026.6R
ST AUGUSTINE FL  0500   52     340/  5/  6 1026.0F


$$


USA.gov is the U.S. government's official web portal to all federal, state and local government web resources and services.